TimeEST,TemperatureF,Dew PointF,Humidity,Sea Level PressureIn,VisibilityMPH,Wind Direction,Wind SpeedMPH,Gust SpeedMPH,PrecipitationIn,Events,Conditions,WindDirDegrees,DateUTC
12:53 AM,41.0,39.0,93,30.05,10.0,Calm,Calm,-,0.01,Rain,Light Rain,0,2013-12-09 05:53:00
1:53 AM,42.1,39.0,89,30.01,10.0,Calm,Calm,-,0.01,,Mostly Cloudy,0,2013-12-09 06:53:00
2:53 AM,43.0,39.9,89,30.04,5.0,SSW,3.5,-,0.03,Rain,Light Rain,210,2013-12-09 07:53:00
3:11 AM,43.0,39.9,89,30.06,4.0,Calm,Calm,-,0.02,Rain,Rain,0,2013-12-09 08:11:00
3:39 AM,42.1,39.9,92,30.07,4.0,Calm,Calm,-,0.08,Rain,Light Rain,0,2013-12-09 08:39:00
3:53 AM,42.1,39.9,92,30.05,4.0,Calm,Calm,-,0.09,Rain,Light Rain,0,2013-12-09 08:53:00
4:34 AM,43.0,39.9,89,30.07,4.0,Calm,Calm,-,0.01,Rain,Light Rain,0,2013-12-09 09:34:00
4:53 AM,43.0,41.0,93,30.04,4.0,Calm,Calm,-,0.03,Rain,Light Rain,0,2013-12-09 09:53:00
5:12 AM,43.0,41.0,93,30.07,2.0,ESE,3.5,-,0.05,Rain,Heavy Rain,110,2013-12-09 10:12:00
5:41 AM,43.0,41.0,93,30.08,3.0,Calm,Calm,-,0.15,Rain,Rain,0,2013-12-09 10:41:00
5:53 AM,43.0,39.9,89,30.06,6.0,SE,4.6,-,0.16,Rain,Light Rain,140,2013-12-09 10:53:00
6:21 AM,43.0,39.9,89,30.08,2.5,Calm,Calm,-,0.01,Rain,Light Rain,0,2013-12-09 11:21:00
6:28 AM,43.0,39.9,89,30.09,4.0,Calm,Calm,-,0.01,Rain,Light Rain,0,2013-12-09 11:28:00
6:40 AM,43.0,39.9,89,30.08,2.5,Calm,Calm,-,0.02,Rain,Light Rain,0,2013-12-09 11:40:00
6:53 AM,43.0,39.9,89,30.08,3.0,Calm,Calm,-,0.03,Rain,Light Rain,0,2013-12-09 11:53:00
7:00 AM,43.0,41.0,93,30.09,1.0,Calm,Calm,-,0.00,Rain,Light Rain,0,2013-12-09 12:00:00
7:53 AM,43.0,41.0,93,30.09,1.0,Calm,Calm,-,0.02,Rain,Light Rain,0,2013-12-09 12:53:00
8:53 AM,43.0,41.0,93,30.11,1.0,Calm,Calm,-,0.03,Rain,Light Rain,0,2013-12-09 13:53:00
9:10 AM,44.1,41.0,89,30.12,0.5,Calm,Calm,-,0.00,Fog-Rain,Light Rain,0,2013-12-09 14:10:00
9:21 AM,44.1,42.1,93,30.13,0.5,Calm,Calm,-,0.01,Fog-Rain,Light Rain,0,2013-12-09 14:21:00
9:53 AM,45.0,42.1,90,30.12,0.5,Calm,Calm,-,0.03,Fog-Rain,Light Rain,0,2013-12-09 14:53:00
10:53 AM,46.0,44.1,93,30.12,1.5,Calm,Calm,-,0.00,,Overcast,0,2013-12-09 15:53:00
11:53 AM,46.9,44.1,90,30.11,1.5,SW,10.4,-,0.00,Rain,Light Rain,230,2013-12-09 16:53:00
12:53 PM,48.0,45.0,89,30.10,1.5,SW,8.1,-,0.01,,Overcast,230,2013-12-09 17:53:00
1:03 PM,48.0,45.0,89,30.12,2.0,SW,8.1,-,N/A,,Overcast,230,2013-12-09 18:03:00
1:53 PM,48.9,45.0,86,30.09,4.0,West,5.8,-,N/A,,Overcast,260,2013-12-09 18:53:00
2:53 PM,48.9,44.1,83,30.08,7.0,SW,4.6,-,N/A,,Overcast,220,2013-12-09 19:53:00
3:53 PM,48.9,45.0,86,30.07,10.0,South,3.5,-,N/A,,Overcast,190,2013-12-09 20:53:00
4:53 PM,48.9,45.0,86,30.10,10.0,WSW,3.5,-,N/A,,Overcast,250,2013-12-09 21:53:00
5:35 PM,48.0,45.0,89,30.13,10.0,WSW,4.6,-,0.00,Rain,Light Rain,240,2013-12-09 22:35:00
5:53 PM,48.0,45.0,89,30.11,10.0,Calm,Calm,-,0.00,,Mostly Cloudy,0,2013-12-09 22:53:00
6:46 PM,45.0,42.1,90,30.14,10.0,SSW,3.5,-,N/A,,Scattered Clouds,200,2013-12-09 23:46:00
6:53 PM,45.0,42.1,90,30.12,10.0,Calm,Calm,-,N/A,,Scattered Clouds,0,2013-12-09 23:53:00
7:04 PM,44.1,42.1,93,30.14,1.2,Calm,Calm,-,N/A,,Scattered Clouds,0,2013-12-10 00:04:00
7:07 PM,43.0,41.0,93,30.14,1.8,NNW,5.8,-,N/A,,Partly Cloudy,340,2013-12-10 00:07:00
7:14 PM,43.0,39.9,89,30.14,1.2,Calm,Calm,-,N/A,,Scattered Clouds,0,2013-12-10 00:14:00
7:28 PM,41.0,39.9,96,30.14,3.0,NNW,3.5,-,N/A,,Mostly Cloudy,340,2013-12-10 00:28:00
7:53 PM,41.0,39.0,93,30.13,3.0,Calm,Calm,-,N/A,,Scattered Clouds,0,2013-12-10 00:53:00
8:23 PM,42.1,41.0,96,30.13,1.0,Calm,Calm,-,N/A,,Overcast,0,2013-12-10 01:23:00
8:30 PM,42.1,39.9,92,30.12,0.5,Calm,Calm,-,N/A,Fog,Fog,0,2013-12-10 01:30:00
8:40 PM,42.1,39.9,92,30.12,1.0,Calm,Calm,-,N/A,,Mostly Cloudy,0,2013-12-10 01:40:00
8:53 PM,43.0,41.0,93,30.11,1.0,Calm,Calm,-,N/A,,Mostly Cloudy,0,2013-12-10 01:53:00
9:53 PM,44.1,42.1,93,30.08,1.0,Calm,Calm,-,N/A,,Overcast,0,2013-12-10 02:53:00
10:37 PM,43.0,42.1,97,30.07,1.0,Calm,Calm,-,N/A,,Mostly Cloudy,0,2013-12-10 03:37:00
10:53 PM,43.0,41.0,93,30.05,0.5,Calm,Calm,-,N/A,Fog,Fog,0,2013-12-10 03:53:00
11:10 PM,43.0,41.0,93,30.05,0.2,East,3.5,-,N/A,Fog,Fog,100,2013-12-10 04:10:00
11:53 PM,44.1,42.1,93,29.99,0.2,Calm,Calm,-,N/A,Fog,Fog,0,2013-12-10 04:53:00